TimeAKDT,TemperatureF,Dew PointF,Humidity,Sea Level PressureIn,VisibilityMPH,Wind Direction,Wind SpeedMPH,Gust SpeedMPH,PrecipitationIn,Events,Conditions,WindDirDegrees,DateUTC
12:53 AM,53.1,51.1,93,29.76,3.0,Calm,Calm,-,N/A,,Overcast,0,2013-08-23 08:53:00
12:55 AM,53.6,51.8,94,29.76,2.5,Calm,Calm,-,N/A,,Overcast,0,2013-08-23 08:55:00
1:53 AM,53.1,51.1,93,29.76,2.5,Calm,Calm,-,N/A,,Overcast,0,2013-08-23 09:53:00
2:37 AM,53.6,51.8,94,29.76,1.5,East,5.8,-,N/A,,Overcast,90,2013-08-23 10:37:00
2:53 AM,53.1,51.1,93,29.76,1.5,Calm,Calm,-,N/A,,Overcast,0,2013-08-23 10:53:00
3:53 AM,53.1,51.1,93,29.75,7.0,WSW,4.6,-,N/A,,Overcast,250,2013-08-23 11:53:00
4:53 AM,55.0,53.1,93,29.74,2.0,SSW,3.5,-,N/A,,Overcast,210,2013-08-23 12:53:00
5:02 AM,55.4,53.6,94,29.74,0.5,Calm,Calm,-,N/A,Fog,Fog,0,2013-08-23 13:02:00
5:16 AM,55.4,53.6,94,29.74,2.0,Variable,4.6,-,N/A,,Overcast,0,2013-08-23 13:16:00
5:53 AM,57.0,50.0,77,29.74,5.0,NW,13.8,-,N/A,,Mostly Cloudy,310,2013-08-23 13:53:00
6:53 AM,55.0,52.0,89,29.73,10.0,WSW,4.6,-,N/A,,Mostly Cloudy,240,2013-08-23 14:53:00
7:53 AM,57.0,50.0,77,29.73,10.0,WNW,6.9,-,N/A,,Mostly Cloudy,290,2013-08-23 15:53:00
8:53 AM,57.9,50.0,75,29.71,10.0,WNW,5.8,-,N/A,,Mostly Cloudy,300,2013-08-23 16:53:00
9:08 AM,57.2,50.0,77,29.71,10.0,SW,5.8,-,N/A,,Mostly Cloudy,220,2013-08-23 17:08:00
9:53 AM,59.0,51.1,75,29.70,10.0,Calm,Calm,-,N/A,,Mostly Cloudy,0,2013-08-23 17:53:00
10:53 AM,62.1,52.0,70,29.70,10.0,WNW,3.5,-,N/A,,Mostly Cloudy,300,2013-08-23 18:53:00
11:53 AM,60.1,52.0,75,29.70,10.0,NE,3.5,-,N/A,,Mostly Cloudy,40,2013-08-23 19:53:00
12:53 PM,66.0,50.0,56,29.69,10.0,Variable,5.8,-,N/A,,Mostly Cloudy,0,2013-08-23 20:53:00
1:53 PM,61.0,52.0,72,29.68,10.0,SE,4.6,-,N/A,,Mostly Cloudy,130,2013-08-23 21:53:00
2:53 PM,62.1,53.1,72,29.67,10.0,ESE,6.9,-,N/A,,Mostly Cloudy,110,2013-08-23 22:53:00
3:53 PM,68.0,48.0,49,29.66,10.0,WNW,10.4,-,N/A,,Mostly Cloudy,290,2013-08-23 23:53:00
4:53 PM,66.9,46.9,49,29.65,10.0,WNW,9.2,17.3,N/A,,Mostly Cloudy,300,2013-08-24 00:53:00
5:53 PM,64.9,46.9,52,29.64,10.0,NW,9.2,-,N/A,,Overcast,320,2013-08-24 01:53:00
6:53 PM,64.0,46.9,54,29.63,10.0,NNW,4.6,-,N/A,,Overcast,330,2013-08-24 02:53:00
7:53 PM,63.0,48.0,58,29.63,10.0,Variable,5.8,-,N/A,,Mostly Cloudy,0,2013-08-24 03:53:00
8:53 PM,61.0,48.0,62,29.62,10.0,West,4.6,-,N/A,,Mostly Cloudy,280,2013-08-24 04:53:00
9:53 PM,57.0,46.9,69,29.63,10.0,West,5.8,-,N/A,,Mostly Cloudy,260,2013-08-24 05:53:00
10:53 PM,55.9,46.9,72,29.63,10.0,NW,5.8,-,N/A,,Mostly Cloudy,310,2013-08-24 06:53:00
11:53 PM,57.0,46.9,69,29.64,10.0,NW,4.6,-,N/A,,Clear,320,2013-08-24 07:53:00